Location: La Brionne
(46.1728°N, 1.7849°E)
Time: 20:53:41
(UTC+00:00)

Cosmos 1953 - Pass Details

Date: 16 June 2021
Orbit: 537 x 557 km, 82.5° (Epoch: 02 August)

Event Time Altitude Azimuth Distance (km) Brightness Sun altitude
Rises 21:06:09 0° 353° (N) 2,753 7.0 -10.8°
Reaches altitude 10° 21:08:21 10° 356° (N) 1,854 5.9 -11.0°
Maximum altitude 21:12:25 67° 79° (E) 610 2.4 -11.4°
Enters shadow 21:15:31 16° 161° (SSE) 1,469 3.9 -11.8°
